Simultaneous Nadir Overpasses (SNOs) Predictions

Prediction of SNOs between GOES-17 and NPP Satellite Orbit:

Table of predicted SNOs for the next 14.0 days since TLE Epoch: 12/5/2020
Index Date Time (GOES-17) GOES-17 Lat,Lon NPP Lat,Lon Distance(km) Time Diff (sec)
1 12/05/2020 22:46:06 0.00,-137.20 -0.75,-140.54 381.07 80
2 12/06/2020 22:30:01 0.00,-137.19 0.27,-136.01 134.56 80
3 12/08/2020 10:49:07 -0.01,-137.18 0.91,-141.27 467.27 80
4 12/09/2020 10:33:02 -0.00,-137.16 -0.10,-136.74 47.99 80
5 12/11/2020 22:33:31 -0.00,-137.12 -0.07,-137.51 44.14 80
6 12/12/2020 22:17:26 -0.00,-137.10 0.94,-132.98 470.65 80
7 12/14/2020 10:36:31 0.01,-137.07 0.29,-138.23 132.66 80
8 12/15/2020 10:17:46 0.01,-137.05 -0.72,-133.69 381.50 80
9 12/16/2020 22:39:41 -0.00,-137.00 -0.45,-139.00 227.28 80
10 12/17/2020 22:23:36 -0.00,-136.98 0.57,-134.47 286.65 80
